This is the latest recevied weather packets stored in our database for station/object K1RFS. If no packets are shown the sender has not sent any weather packets the latest 10 day(s).
| Time | Temp. | Humidity | Pressure | Rain* | Wind** | Luminosity | Snow |
|---|---|---|---|---|---|---|---|
| 1787665514 | 19.44° C | 55% | 1009.8 hPa | 0 mm | - | 19 W/m² | - |
| 1787665214 | 19.44° C | 55% | 1009.5 hPa | 0 mm | - | 17 W/m² | - |
| 1787664911 | 18.89° C | 55% | 1009.7 hPa | 0 mm | - | 16 W/m² | - |
| 1787664607 | 19.44° C | 54% | 1009.4 hPa | 0 mm | - | 15 W/m² | - |
| 1787664301 | 18.89° C | 53% | 1009.7 hPa | 0 mm | - | 14 W/m² | - |
| 1787664000 | 18.89° C | 54% | 1009.4 hPa | 0 mm | - | 12 W/m² | - |
| 1787663695 | 18.89° C | 53% | 1009.6 hPa | 0 mm | - | 10 W/m² | - |
| 1787663390 | 18.33° C | 55% | 1009.5 hPa | 0 mm | - | 8 W/m² | - |
| 1787663087 | 18.33° C | 58% | 1009.4 hPa | 0 mm | - | 6 W/m² | - |
| 1787662782 | 18.33° C | 58% | 1009.4 hPa | 0 mm | - | 4 W/m² | - |
| 1787662476 | 18.33° C | 58% | 1009.3 hPa | 0 mm | - | 3 W/m² | - |
| 1787662172 | 18.33° C | 58% | 1009.4 hPa | 0 mm | - | 2 W/m² | - |
| 1787661868 | 17.78° C | 59% | 1009.2 hPa | 0 mm | - | 1 W/m² | - |
| 1787661567 | 17.78° C | 59% | 1009 hPa | 0 mm | - | 0 W/m² | - |
| 1787661266 | 17.78° C | 60% | 1008.9 hPa | 0 mm | - | 0 W/m² | - |
| 1787660965 | 18.33° C | 59% | 1008.8 hPa | 0 mm | - | 0 W/m² | - |
| 1787660661 | 18.33° C | 58% | 1008.8 hPa | 0 mm | - | 0 W/m² | - |
| 1787660355 | 18.33° C | 58% | 1008.9 hPa | 0 mm | - | 0 W/m² | - |
| 1787660050 | 18.33° C | 56% | 1008.8 hPa | 0 mm | - | 0 W/m² | - |
| 1787659749 | 18.33° C | 57% | 1008.9 hPa | 0 mm | - | 0 W/m² | - |
| 1787659443 | 18.89° C | 56% | 1008.9 hPa | 0 mm | - | 0 W/m² | - |
| 1787659143 | 18.89° C | 56% | 1009 hPa | 0 mm | - | 0 W/m² | - |
| 1787658838 | 18.89° C | 55% | 1009 hPa | 0 mm | - | 0 W/m² | - |
| 1787658537 | 18.89° C | 55% | 1009.3 hPa | 0 mm | - | 0 W/m² | - |
| 1787658234 | 18.89° C | 55% | 1009.3 hPa | 0 mm | - | 0 W/m² | - |
* Rain latest hour (hover to see other rain measurements)
** Current wind speed in m/s (hover to see current wind gust speed)